Find GPS IIF-7

NORAD ID: 40105 Int'l Des: 2014-045 Owner: AFSMC Country: US Constellation: GPS operational
MEOCIRCULARGNSS

Live Position

Loading 3D Globe...

About GPS IIF-7

Description loading...

Upcoming Passes

Passes for default location (London). Set your location on the main map for personalized predictions.

Altitude History

Loading altitude history...

Two-Line Element Set

1 40105U 14045A 26120.68677268 -.00000009 00000-0 00000-0 0 9995
2 40105 55.3229 90.3561 0031758 119.0700 241.2188 2.00555331 85120
Epoch: Apr 30, 2026 • Age: 18 hours

Current Status

Altitude 20144.7 km
Velocity 3.88 km/s
Sub-Earth Point -1.62°S, 105.06°W
Launch Date Aug 2, 2014
Age 11.7 years
Type navigation

Technical Details

Classification Payload
Mass 1630.00 kg
Dry Mass 1500.00 kg
Total Mass 1630.00 kg
Length 2.50 m
Diameter 1.80 m
Span 18.00 m
Shape Box + 2 Pan
Manufacturer BOES
Bus Type GPS IIF
Phase Status In Orbit
Owner/State AFSMC/US

Most Searched